200 serials | cakewalk sonar 8

Date Name Success Rate
2009-10-22 23:45:48 Cakewalk Sonar 14%
2009-10-22 23:45:48 Cakewalk Sonar 2 0%
2009-10-22 23:45:48 Cakewalk Sonar 7 30%
2011-09-08 10:23:11 Cakewalk Sonar 1.0 0%
2011-09-08 10:23:11 Cakewalk Sonar 2 0%
2011-09-08 10:23:11 Cakewalk Sonar v1.0 50%
2011-09-08 10:23:11 Cakewalk SONAR v2.0 XL 0%
2011-09-08 10:23:11 CakeWalk Sonar XL 1.0 57%
2011-09-08 10:23:11 Cakewalk Sonar XL 2.0 93%
2011-09-08 10:23:11 CakeWalk Sonar XL v1.0 0%
2011-09-08 10:23:11 CakeWalk Sonar XL v2.0 0%
2011-09-08 12:50:04 Sonar XL CakeWalk v2.0 0%
2012-12-12 04:59:11 Cakewalk Sonar v.7.0 0%
2012-12-12 04:59:15 Cakewalk sonar x1 11%
2012-12-13 08:57:10 Sonar Cakewalk 0%
2009-10-17 06:20:07 Cakewalk Sonar Home Studio V4 40%
2009-10-17 06:20:07 Cakewalk Sonar Producer Edition V6.0 61%
2009-10-22 23:45:48 CAKEWALK SONAR 3 PRODUCER EDITION (3CD) 40%
2009-10-22 23:45:48 Cakewalk Sonar 5 Producer Edition 32%
2009-10-22 23:45:48 Cakewalk Sonar Produce Edition V6.0 100%
2009-10-22 23:45:48 Cakewalk Sonar Producer Edition 3.0 RC 0%
2009-10-22 23:45:48 Cakewalk Sonar Producer Edition 5.0.1.x64 0%
2009-10-22 23:45:48 Cakewalk Sonar Producer Edition 6 0%
2009-10-22 23:45:48 Cakewalk Sonar Producer Edition V7.0.1 0%
2009-10-22 23:45:48 Cakewalk Sonar V7 0 Producer Edition 43%
2011-09-08 10:23:11 CAKEWALK SONAR 3 PRODUCER EDITION 3CD 0%
2011-09-08 10:23:11 Cakewalk Sonar Producer Edition 3.0 RC 0%
2011-09-08 10:23:11 Cakewalk Sonar Producer Edition 5.2 0%
2011-09-08 10:23:11 Cakewalk Sonar Producer Edition v3.0 RC 0%
2012-12-13 08:57:13 Sonar Cakewalk Producer Edition 8 and 8.5 100%
2011-09-08 10:23:11 Cakewalk SONAR Update for Sonar v1.0 v1.02 Update for Sonar v1.0 0%
2009-10-17 06:20:07 Cakewalk Sonar Producer Edition V5.0.1 X64 Update 22%
2009-10-17 06:20:07 Cakewalk Sonar Producer Edition V5.2 Update 20%
2009-10-17 06:20:07 Cakewalk Sonar Producer Edition V5.2 X64 Update 14%
2009-10-17 06:20:07 Cakewalk Sonar Producer Edition V6.0.1 Update 13%
2009-10-17 06:20:07 Cakewalk Sonar Producer Edition V6.2 Update 13%
2009-10-17 06:20:07 Cakewalk Sonar Producer Edition V7.0.1 Update 69%
2009-10-22 23:45:48 Cakewalk Sonar Home Studio V4-SHOCK 0%
2011-09-08 10:23:11 Cakewalk Sonar Producer Edition Update 5.2 0%
2009-10-22 23:45:48 Cakewalk Sonar Producer Edition V5.2 Update-BEAT 0%
2009-10-22 23:45:48 Cakewalk Sonar Producer Edition V5.2 X64 Update-BEAT 0%
2009-10-22 23:45:48 Cakewalk Sonar Producer Edition V6.0 READ NFO-BEAT 52%
2009-10-22 23:45:48 Cakewalk Sonar Producer Edition V6.0.1 Update-BEAT 0%
2009-10-22 23:49:56 Sonar 3 0%
2009-10-22 23:49:56 Sonar 4 0%
2009-10-22 23:49:56 Sonar 6.0.1 0%
2011-09-08 12:50:04 Sonar 4 100%
2011-09-08 12:50:04 Sonar Pro 5.5 0%
2011-09-08 12:50:04 Sonar Pro v5.5 0%
2011-09-08 12:50:04 Sonar Pro v5.55 0%
2012-12-13 08:56:49 Sonar 6 100%
2012-12-13 08:57:01 Sonar 8 0%
2012-12-13 08:57:07 Sonar 8.0 0%
2012-12-13 08:57:19 Sonar x1 65%
2012-12-13 08:57:22 Sonar x2 64%
2009-10-22 23:49:56 Sonar 4.00xl 0%
2011-09-08 12:50:04 Sonar Bookends 4.0 0%
2011-09-08 12:50:04 Sonar Bookends v4.0 0%
2011-09-08 12:50:04 Sonar Professional v12 0%
2011-09-08 12:50:04 Sonar Professional v5.2 0%
2011-09-08 12:50:04 Sonar Professional v5.55 0%
2009-10-22 23:45:52 Ckewalk Sonar 4 Producer 0%
2009-10-22 23:49:56 Sonar 6 Producer Edition 64%
2009-10-22 23:49:56 Sonar Producer Edition 8.0.2.330 62%
2011-09-08 12:50:04 Sonar 3 Producer Edition 0%
2011-09-08 12:50:04 Sonar Bookends Infnote v1 0 0%
2011-09-08 12:50:04 Sonar Bookends InXref v1.01 0%
2011-09-08 12:50:04 Sonar Producer Edition 5.0.1.x64 0%
2011-09-08 12:50:04 Sonar Professioanl for Windows 6.01 0%
2011-09-08 12:50:04 Sonar Professional for Windows v6.02 0%
2009-10-22 23:45:48 Calkwalk Sonar 3 Producer Edition 0%
2009-10-22 23:49:56 Sonar 7 Producer Edidion Trial 49%
2011-09-08 10:23:24 Calkwalk Sonar 3 Producer Edition 42%
2011-09-08 12:50:04 Sonar Bookends Index Professional v1 0 0%
2011-09-08 12:50:04 Sonar Bookends Professional 2001.3 0%
2011-09-08 12:50:04 Sonar Bookends Professional 2001.4 0%
2012-12-13 08:57:04 Sonar 8 producer edition trial 82%
2011-09-08 12:50:04 Sonar Bookends Fnote for Quark Xpress 1.03 0%
2011-09-08 12:50:04 Sonar Bookends Fnote for Quark Xpress v1.03 0%
2011-09-08 12:50:04 Sonar Bookends Fnote for Quark Xpress v2.0.1 0%
2011-09-08 12:50:04 Sonar Bookends InDex 1.20 for Adobe InDesign 0%
2011-09-08 12:50:04 Sonar Bookends Index for Adobe Indesign 2.0 0%
2011-09-08 12:50:04 Sonar Bookends Index for Adobe Indesign v2.0 0%
2011-09-08 12:50:04 Sonar Bookends Index for Adobe Indesign v2.0 2.01 0%
2011-09-08 12:50:04 Sonar Bookends Index Pro for Adobe Indesign 1.0 0%
2011-09-08 12:50:04 Sonar Bookends Index Pro for Adobe Indesign v1 0 0%
2011-09-08 12:50:04 Sonar Bookends Index Pro for Adobe Indesign v2.0 1.01 0%
2011-09-08 12:50:04 Sonar Bookends Index Pro for Adobe Indesign v2.0 v1.02 0%
2011-09-08 12:50:04 Sonar Bookends InDex v1.18 for Adobe InDesign 0%
2011-09-08 12:50:04 Sonar Bookends InDex v1.20 for Adobe InDesign 0%
2011-09-08 12:50:04 Sonar Bookends Infnote 1.0 for Adobe Indesign 0%
2011-09-08 12:50:04 Sonar Bookends Infnote for Adobe Indesign 2.0 0%
2011-09-08 12:50:04 Sonar Bookends Infnote for Adobe Indesign v2 0 0%
2011-09-08 12:50:04 Sonar Bookends Infnote v1.0 for Adobe Indesign 0%
2011-09-08 12:50:04 Sonar Bookends InXref 1.01 for Adobe InDesign 0%
2011-09-08 12:50:04 Sonar Bookends Inxref for Adobe Indesign 2.0 0%
2011-09-08 12:50:04 Sonar Bookends Inxref for Adobe Indesign v2.0 0%
2011-09-08 12:50:04 Sonar Bookends InXref v1.01 for Adobe InDesign 0%
2011-09-08 12:50:04 Sonar Bookends Professional for Windows 2002 1 0%
2011-09-08 12:50:04 Sonar Bookends Professional for Windows 2002.2 0%
2011-09-08 12:50:04 Sonar Bookends Xref 1.01 for Quark Xpress 0%
2011-09-08 12:50:04 Sonar Bookends Xref for Quark XPress 1.03 0%
2011-09-08 12:50:04 Sonar Bookends Xref for Quark XPress v1.03 0%
2011-09-08 12:50:04 Sonar Bookends Xref for Quark Xpress v2.0 0%
2011-09-08 12:50:04 Sonar Bookends Xref v1.0 for Quark Xpress 0%
2011-09-08 12:50:04 Sonar Bookends Xref v1.01 for Quark Xpress 0%
2011-09-08 12:50:04 Sonar Bookends Index Pro Yearbook Edition v1.01 for Adobe Indesign 0%
2011-09-08 10:23:08 Cakewalk 9 67%
2011-09-08 10:23:09 Cakewalk Pro 2.01 0%
2011-09-08 10:23:09 Cakewalk Pro 8.0 0%
2011-09-08 10:23:09 CakeWalk Pro 9 0%
2011-09-08 10:23:09 Cakewalk Pro v2.01 0%
2011-09-08 10:23:09 CakeWalk Pro v5.0 90%
2011-09-08 10:23:09 CakeWalk Pro v5.0 Win 0%
2011-09-08 10:23:09 CakeWalk Pro v6.0 0%
2011-09-08 10:23:09 Cakewalk Pro v8.0 0%
2009-10-22 23:45:48 Cakewalk Kinetic 0%
2009-10-22 23:45:48 Cakewalk MediaWorks 3.0.162 0%
2009-10-22 23:45:48 CAKEWALK PLASMA 101 (2CD) 0%
2009-10-22 23:45:48 Cakewalk Pro Audio 9 100%
2009-10-22 23:45:48 Cakewalk Pyro 2.003 0%
2009-10-22 23:45:48 Cakewalk Pyro V2.003 0%
2009-10-22 23:45:48 Cakewalk Rapture V1.2 0%
2009-10-22 23:45:48 Cakewalk Z3TA Plus 0%
2009-10-22 23:48:30 Kinetic Cakewalk 2 0%
2011-09-08 10:09:51 Audio FX3 Cakewalk 0%
2011-09-08 10:23:08 Cakewalk 2002 0%
2011-09-08 10:23:08 Cakewalk Audio FX1 0%
2011-09-08 10:23:08 Cakewalk Audio FX3 53%
2011-09-08 10:23:08 Cakewalk Audio Pro v9.03 80%
2011-09-08 10:23:08 Cakewalk Express 8.0 0%
2011-09-08 10:23:08 Cakewalk Express v8.0 0%
2011-09-08 10:23:09 Cakewalk In Concert 1.0 0%
2011-09-08 10:23:09 Cakewalk In Concert 1.00 0%
2011-09-08 10:23:09 Cakewalk In Concert v1.0 0%
2011-09-08 10:23:09 Cakewalk In Concert v1.00 0%
2011-09-08 10:23:09 Cakewalk Kinetic 0%
2011-09-08 10:23:09 Cakewalk MediaWorks 3.0.162 0%
2011-09-08 10:23:09 Cakewalk MediaWorks v3.0.162 0%
2011-09-08 10:23:09 CakeWalk Metro 4.0 0%
2011-09-08 10:23:09 CakeWalk Metro 6.0 0%
2011-09-08 10:23:09 CakeWalk Metro v4.0 0%
2011-09-08 10:23:09 CakeWalk Metro v6.0 0%
2011-09-08 10:23:09 Cakewalk Overture 2 0%
2011-09-08 10:23:09 Cakewalk Overture 2.0 0%
2011-09-08 10:23:09 Cakewalk Overture v2.0 0%
2011-09-08 10:23:09 Cakewalk Plasma 101 (2cd) 0%
2011-09-08 10:23:09 Cakewalk Plasma v1.0 0%
2011-09-08 10:23:09 Cakewalk Pro Audio 5.0 0%
2011-09-08 10:23:09 Cakewalk Pro Audio 6.0 0%
2011-09-08 10:23:09 Cakewalk Pro Audio 7.0 0%
2011-09-08 10:23:09 Cakewalk Pro Audio 8 18%
2011-09-08 10:23:09 Cakewalk pro audio 9 0%
2011-09-08 10:23:09 Cakewalk Pro Audio 9.0 0%
2011-09-08 10:23:09 Cakewalk Pro Audio v5.0 0%
2011-09-08 10:23:09 CakeWalk Pro Audio v50 0%
2011-09-08 10:23:09 Cakewalk Pro Audio v6.0 0%
2011-09-08 10:23:09 Cakewalk Pro Audio v7.0 0%
2011-09-08 10:23:09 Cakewalk Pro Audio v8.0 0%
2011-09-08 10:23:09 Cakewalk Pro Audio v9.0 0%
2011-09-08 10:23:09 Cakewalk PRO MP3 and CD Maker v1.5 0%
2011-09-08 10:23:09 CakeWalk Professional v2.01 0%
2011-09-08 10:23:09 Cakewalk Pyro 1.0 0%
2011-09-08 10:23:09 Cakewalk Pyro 2.003 0%
2011-09-08 10:23:11 Cakewalk Pyro v1.0 0%
2011-09-08 10:23:11 Cakewalk Pyro v2.003 0%
2011-09-08 10:23:11 CAKEWALK SONNAR 3 0%
2011-09-08 11:30:27 MediaWorks Cakewalk v3.0.162 0%
2011-09-08 11:43:40 NTONYX MFX Kit 1 for Cakewalk 0%
2011-09-08 12:27:29 Overture Cakewalk 2 0%
2011-09-08 12:38:20 Pro Audio Cakewalk v9.0 0%
2012-12-12 04:59:27 Cakewalk Z3TA+ 20%
2009-10-17 06:20:07 Cakewalk PYRO Plus 2005 10%
2009-10-17 06:20:07 Cakewalk Z3TA Plus VSTi DXi V1.5.3-AiR 67%
2009-10-22 23:45:48 CakeWalk Guitar Tracks 2 0%
2009-10-22 23:45:48 Cakewalk Music Creator 2.22 47%
2009-10-22 23:45:48 Cakewalk Music Creator Pro 24 0%
2009-10-22 23:45:48 Cakewalk Pyro 2004 0%
2009-10-22 23:45:48 Cakewalk Pyro 2005 Plus 1.1 0%
2009-10-22 23:45:48 Cakewalk Pyro AudioCreator V1.5.2 0%
2011-09-08 10:23:08 Cakewalk Audio FX1 Pack 1.02 0%
2011-09-08 10:23:08 Cakewalk Audio FX1 Pack v1.02 0%
2011-09-08 10:23:08 CakeWalk Club Tracks v2.01 80%
2011-09-08 10:23:08 Cakewalk Groove Maker 1.1a 0%
2011-09-08 10:23:09 Cakewalk Groove Maker v1.1a 0%
2011-09-08 10:23:09 Cakewalk Guitar Studio 1.0 0%
2011-09-08 10:23:09 Cakewalk Guitar Studio N/A 0%
2011-09-08 10:23:09 Cakewalk Guitar Studio v1.0 0%
2011-09-08 10:23:09 CakeWalk Guitar Tracks 2 0%
2011-09-08 10:23:09 Cakewalk Guitar Tracks Pro v2.0 0%
2011-09-08 10:23:09 Cakewalk Home Studio 8.0 0%
2011-09-08 10:23:09 Cakewalk Home Studio 9 0%
2011-09-08 10:23:09 Cakewalk Home Studio 9.0 0%
2011-09-08 10:23:09 Cakewalk Home Studio v8.0 0%
2011-09-08 10:23:09 Cakewalk Home Studio v9.0 0%
2011-09-08 10:23:09 CAKEWALK HOME STUDIO XL 0%
2011-09-08 10:23:09 Cakewalk Music Creator 2.22 0%
2011-09-08 10:23:09 Cakewalk Music Creator Pro 24 0%
2011-09-08 10:23:09 Cakewalk Music Creator v1.0 0%
2011-09-08 10:23:09 CAKEWALK MUSIC CREATOR V2 0%